Weather in Chertanovo

Russia / Moscow Oblast     55°54′10″N   35°55′26″E
temp.,
°C
wind,
m/s
gust,
m/s
humid.,
%
clouds,
%
prec.,
mm/h
press.,
hPa
HPBL,
m
28 september, tue
tue2800:00+8nne4992100 0.1 1026658
03:00+7nne3892100 0.2 1027499
06:00+7ne4892100 0.4 1028606
09:00+6ene4883100 0.4 1030653
12:00+8ene4675100 0.0 1031908
15:00+8ene356656 0.0 1032999
18:00+6ene117685 0.0 103311
21:00+4ene228333 0.0 103425
29 september, wed
wed2900:00+3e11875 0.0 103610
03:00+2n11895 0.0 103610
06:00+2n229111 0.0 103714
09:00+5n237554 0.0 1037203
12:00+10n235976 0.0 1036695
15:00+11n2355100 0.0 1035958
18:00+8n2272100 0.0 103518
21:00+5nne118399 0.0 103510
30 september, thu
thu3000:00+4nne11875 0.0 103610
03:00+4nnw11907 0.0 103610
06:00+3nnw119155 0.0 103610
09:00+7n11775 0.0 1036154
12:00+11nnw01635 0.0 1036706
15:00+13wsw115947 0.0 10351051
18:00+9wsw007338 0.0 103410
21:00+8sw118120 0.0 103510
1 october, fri
fri100:00+6sw11876 0.0 103611
03:00+5wsw11915 0.0 103611
06:00+4wsw11925 0.0 103610
09:00+8sw22785 0.0 1036184
12:00+12sw23636 0.0 1035748
15:00+13sw225811 0.0 10341034
18:00+9sw22775 0.0 103411
21:00+7sw228714 0.0 103511
2 october, sat
sat200:00+6ssw229157 0.0 103519
03:00+5ssw229327 0.0 103521
06:00+4ssw229425 0.0 103417
09:00+8ssw238053 0.0 1034177
12:00+12ssw236352 0.0 1033746
15:00+14ssw345512 0.0 10321080
18:00+9ssw22764 0.0 103211
21:00+7s22862 0.0 103337